CW8490 Weather Reports


Display with metric or nautical units.
time (UTC)temp
F
wind
direction
speed
MPH
gust
MPH
rain 1hr
in
rain 24hr
in
rain mn
in
humidity
%
barometer
mb
20260904203816 97 135 5.0 14.0 0.00 0.00 0.00 54 1012.2
20260904202815 97 203 1.0 4.0 0.00 0.00 0.00 55 1012.2
20260904201815 97 90 6.0 9.0 0.00 0.00 0.00 55 1012.3
20260904200816 97 113 5.0 7.0 0.00 0.00 0.00 54 1012.4
20260904195816 98 203 5.0 6.0 0.00 0.00 0.00 54 1012.4
20260904194816 97 158 5.0 9.0 0.00 0.00 0.00 55 1012.4
20260904193816 97 180 4.0 5.0 0.00 0.00 0.00 56 1012.5
20260904192816 96 203 3.0 5.0 0.00 0.00 0.00 54 1012.6
20260904191816 96 180 5.0 7.0 0.00 0.00 0.00 56 1012.6
20260904190816 97 225 4.0 7.0 0.00 0.00 0.00 57 1012.8
20260904185816 96 203 5.0 6.0 0.00 0.00 0.00 58 1012.9
20260904184816 95 248 3.0 5.0 0.00 0.00 0.00 57 1012.8
20260904183816 94 158 7.0 10.0 0.00 0.00 0.00 58 1012.9
20260904182815 95 203 3.0 8.0 0.00 0.00 0.00 59 1013.0
20260904181835 95 180 6.0 11.0 0.00 0.00 0.00 58 1013.2
20260904180816 94 203 6.0 8.0 0.00 0.00 0.00 59 1013.2
20260904175856 94 225 6.0 10.0 0.00 0.00 0.00 60 1013.4
20260904174816 94 158 3.0 5.0 0.00 0.00 0.00 61 1013.5
20260904173816 94 158 2.0 4.0 0.00 0.00 0.00 61 1013.5
20260904172816 93 203 3.0 5.0 0.00 0.00 0.00 61 1013.6
20260904171816 93 158 4.0 7.0 0.00 0.00 0.00 62 1013.7
20260904170816 92 225 4.0 8.0 0.00 0.00 0.00 63 1013.7
20260904165816 92 203 3.0 7.0 0.00 0.00 0.00 63 1013.8
20260904164816 92 225 1.0 3.0 0.00 0.00 0.00 64 1013.9
20260904163816 91 158 6.0 9.0 0.00 0.00 0.00 65 1013.9
20260904162837 91 203 4.0 6.0 0.00 0.00 0.00 66 1013.9
20260904161816 90 248 3.0 4.0 0.00 0.00 0.00 66 1013.9
20260904160816 90 180 8.0 11.0 0.00 0.00 0.00 65 1014.0
20260904155836 89 180 2.0 5.0 0.00 0.00 0.00 69 1014.0
20260904154816 89 293 4.0 8.0 0.00 0.00 0.00 69 1014.0
20260904153816 89 180 4.0 7.0 0.00 0.00 0.00 69 1014.1
20260904152836 88 225 3.0 6.0 0.00 0.00 0.00 69 1014.1
20260904151905 88 0.0 0.0 0.00 0.00 0.00 70 1014.1
20260904151416 88 203 3.0 5.0 0.00 0.00 0.00 71 1014.2
20260904150416 87 180 2.0 4.0 0.00 0.00 0.00 70 1014.1
20260904145416 86 158 4.0 6.0 0.00 0.00 0.00 71 1014.1
20260904144416 86 180 4.0 9.0 0.00 0.00 0.00 72 1014.2
20260904143416 85 270 2.0 5.0 0.00 0.00 0.00 72 1014.3
20260904142416 85 0.0 3.0 0.00 0.00 0.00 74 1014.2
20260904141416 84 203 2.0 4.0 0.00 0.00 0.00 75 1013.9
20260904140416 83 180 3.0 7.0 0.00 0.00 0.00 76 1013.9
20260904135416 82 135 2.0 3.0 0.00 0.00 0.00 77 1013.8
20260904134436 82 180 2.0 5.0 0.00 0.00 0.00 78 1013.9
20260904133417 81 158 3.0 4.0 0.00 0.00 0.00 79 1013.9
20260904132416 80 180 2.0 3.0 0.00 0.00 0.00 80 1013.8
20260904131416 79 180 3.0 5.0 0.00 0.00 0.00 80 1013.9
20260904130416 78 180 2.0 2.0 0.00 0.00 0.00 82 1013.6
20260904125416 77 158 2.0 3.0 0.00 0.00 0.00 82 1013.5
20260904124436 76 180 2.0 3.0 0.00 0.00 0.00 84 1013.3
20260904123416 75 135 2.0 3.0 0.00 0.00 0.00 86 1013.3
20260904122436 74 158 2.0 3.0 0.00 0.00 0.00 89 1013.2
20260904121456 72 180 1.0 1.0 0.00 0.00 0.00 91 1013.1
20260904120416 72 0.0 1.0 0.00 0.00 0.00 91 1012.9
20260904115416 71 0.0 0.0 0.00 0.00 0.00 90 1012.8
20260904114417 72 0.0 0.0 0.00 0.00 0.00 90 1012.9
20260904113416 71 0.0 1.0 0.00 0.00 0.00 90 1012.9
20260904112437 72 0.0 0.0 0.00 0.00 0.00 89 1012.9
20260904111436 72 0.0 0.0 0.00 0.00 0.00 88 1012.8
20260904110416 72 0.0 0.0 0.00 0.00 0.00 88 1012.8
20260904105416 73 0.0 0.0 0.00 0.00 0.00 87 1012.6
20260904104417 73 0.0 0.0 0.00 0.00 0.00 87 1012.6
20260904103437 73 0.0 1.0 0.00 0.00 0.00 87 1012.5
20260904102416 73 0.0 0.0 0.00 0.00 0.00 87 1012.5
20260904101416 74 0.0 0.0 0.00 0.00 0.00 86 1012.5
20260904100416 74 0.0 0.0 0.00 0.00 0.00 86 1012.4
20260904095416 74 0.0 0.0 0.00 0.00 0.00 86 1012.4
20260904094416 74 203 1.0 1.0 0.00 0.00 0.00 85 1012.3
20260904093417 74 0.0 0.0 0.00 0.00 0.00 85 1012.2
20260904092436 74 135 2.0 3.0 0.00 0.00 0.00 85 1012.1
20260904091416 74 0.0 0.0 0.00 0.00 0.00 84 1012.0
20260904090416 75 0.0 0.0 0.00 0.00 0.00 84 1011.8
20260904085416 75 0.0 0.0 0.00 0.00 0.00 84 1011.8
20260904084507 75 0.0 0.0 0.00 0.00 0.00 84 1011.7
20260904083836 75 0.0 0.0 0.00 0.00 0.00 83 1011.7
20260904082816 75 0.0 0.0 0.00 0.00 0.00 84 1011.7
20260904081816 75 0.0 0.0 0.00 0.00 0.00 84 1011.7
20260904080817 75 0.0 0.0 0.00 0.00 0.00 84 1011.6
20260904075816 75 0.0 0.0 0.00 0.00 0.00 83 1011.7
20260904074816 76 0.0 0.0 0.00 0.00 0.00 82 1011.6
20260904073816 76 0.0 0.0 0.00 0.00 0.00 82 1011.5
20260904072836 76 0.0 0.0 0.00 0.00 0.00 82 1011.5
20260904071816 76 0.0 0.0 0.00 0.00 0.00 84 1011.5
20260904070816 75 0.0 0.0 0.00 0.00 0.00 85 1011.5
20260904065816 76 0.0 0.0 0.00 0.00 0.00 85 1011.5
20260904064817 76 0.0 0.0 0.00 0.00 0.00 85 1011.6
20260904063816 76 0.0 0.0 0.00 0.00 0.00 82 1011.5
20260904062816 77 0.0 0.0 0.00 0.00 0.00 80 1011.6
20260904061816 78 0.0 0.0 0.00 0.00 0.00 79 1011.6
20260904060816 78 0.0 0.0 0.00 0.00 0.00 78 1011.5
20260904055816 78 0.0 0.0 0.00 0.00 0.00 77 1011.4
20260904054816 78 0.0 0.0 0.00 0.00 0.00 78 1011.4
20260904053837 78 0.0 0.0 0.00 0.00 0.00 77 1011.4
20260904052816 78 0.0 0.0 0.00 0.00 0.00 78 1011.3
20260904051836 78 203 1.0 2.0 0.00 0.00 0.00 79 1011.2
20260904050816 77 0.0 0.0 0.00 0.00 0.00 81 1011.1
20260904045817 77 0.0 0.0 0.00 0.00 0.00 82 1011.0
20260904044817 76 0.0 2.0 0.00 0.00 0.00 84 1011.1
20260904043817 76 0.0 0.0 0.00 0.00 0.00 84 1011.0
20260904042817 76 0.0 0.0 0.00 0.00 0.00 84 1011.0
20260904041837 77 0.0 0.0 0.00 0.00 0.00 83 1011.0
20260904040818 77 0.0 0.0 0.00 0.00 0.00 83 1010.9
20260904035817 77 0.0 0.0 0.00 0.00 0.00 82 1010.8
20260904034817 78 0.0 0.0 0.00 0.00 0.00 81 1010.9
20260904033817 78 0.0 0.0 0.00 0.00 0.00 81 1010.9
20260904032817 78 0.0 0.0 0.00 0.00 0.00 80 1010.9
20260904031817 79 0.0 0.0 0.00 0.00 0.00 79 1010.9
20260904030817 79 0.0 0.0 0.00 0.00 0.00 78 1010.8
20260904025817 80 0.0 0.0 0.00 0.00 0.00 75 1010.9
20260904024817 81 0.0 0.0 0.00 0.00 0.00 73 1010.8
20260904023818 82 0.0 0.0 0.00 0.00 0.00 73 1010.8
20260904022817 83 0.0 0.0 0.00 0.00 0.00 70 1010.7
20260904021817 85 0.0 0.0 0.00 0.00 0.00 66 1010.6
20260904020817 85 0.0 0.0 0.00 0.00 0.00 66 1010.3
20260904015817 84 0.0 1.0 0.00 0.00 0.00 68 1010.1
20260904014817 83 0.0 0.0 0.00 0.00 0.00 69 1010.1
20260904013837 83 0.0 0.0 0.00 0.00 0.00 70 1009.8
20260904012817 84 0.0 0.0 0.00 0.00 0.00 70 1009.7
20260904011817 85 0.0 0.0 0.00 0.00 0.00 66 1009.7
20260904010817 86 0.0 0.0 0.00 0.00 0.00 64 1009.5
20260904005838 87 0.0 0.0 0.00 0.00 0.00 63 1009.5
20260904004817 89 0.0 0.0 0.00 0.00 0.00 60 1009.6
20260904003818 90 0.0 1.0 0.00 0.00 0.00 58 1009.5
20260904002817 91 90 1.0 2.0 0.00 0.00 0.00 57 1009.7
20260904001817 93 113 1.0 2.0 0.00 0.00 0.00 54 1009.8
20260904000817 93 158 3.0 5.0 0.00 0.00 0.00 53 1009.7
20260903235817 94 135 2.0 3.0 0.00 0.00 0.00 53 1009.8
20260903234817 94 113 5.0 7.0 0.00 0.00 0.00 51 1009.8
20260903233817 95 113 5.0 8.0 0.00 0.00 0.00 51 1009.9
20260903232817 95 135 4.0 6.0 0.00 0.00 0.00 50 1009.9
20260903231817 96 135 5.0 6.0 0.00 0.00 0.00 50 1009.8
20260903230817 96 158 5.0 6.0 0.00 0.00 0.00 49 1010.0
20260903225817 96 135 4.0 7.0 0.00 0.00 0.00 50 1010.1
20260903224817 97 113 4.0 7.0 0.00 0.00 0.00 49 1010.1
20260903223817 97 135 6.0 8.0 0.00 0.00 0.00 48 1010.2
20260903222817 97 90 2.0 3.0 0.00 0.00 0.00 48 1010.1
20260903221817 97 135 6.0 8.0 0.00 0.00 0.00 48 1010.2
20260903220817 97 180 3.0 5.0 0.00 0.00 0.00 51 1010.2
20260903215817 98 135 6.0 8.0 0.00 0.00 0.00 48 1010.3
20260903214817 98 135 4.0 6.0 0.00 0.00 0.00 49 1010.4
20260903213837 98 158 4.0 6.0 0.00 0.00 0.00 49 1010.4
20260903212838 98 135 3.0 6.0 0.00 0.00 0.00 49 1010.4
20260903211818 97 158 5.0 8.0 0.00 0.00 0.00 49 1010.5
20260903210837 97 158 5.0 11.0 0.00 0.00 0.00 49 1010.5
20260903205817 97 203 5.0 7.0 0.00 0.00 0.00 49 1010.5
20260903204917 97 158 5.0 8.0 0.00 0.00 0.00 49 1010.6